Location: Asheville, NC
(35.6000°N, 82.5500°W)
Time: 02:34:56
(UTC-04:00)

BEESAT 2 - Pass Details

Date: 17 March 2018
Orbit: 502 x 533 km, 64.9° (Epoch: 20 June)

Event Time Altitude Azimuth Distance (km) Brightness Sun altitude
Exits shadow 05:28:11 34° 116° (ESE) 883 ? -26.8°
Drops below altitude 10° 05:30:38 10° 136° (SE) 1,756 ? -26.3°
Sets 05:32:50 0° 141° (SE) 2,635 ? -25.9°
